RPA4713 KDCA-KDSM

Flight info

Callsign RPA4713
Flight time N/A
Altitude 28000
Route RAMAY Q72 HACKS J149 FWA BDF IOW J10 DSM
Aircraft E75L/M-SDE3GILORVW/S

Departure

Time 2026-05-06 19:50
Airport Ronald Reagan Washington National Airport (KDCA)

Arrival

Time N/A
Airport Des Moines International Airport (KDSM)
Time Latitude Longitude Altitude Speed Heading
2026-05-06 19:12 38.85644 -77.04349 25 ft 0 kts 134°
2026-05-06 19:24 38.85649 -77.04302 27 ft 22 kts 172°
2026-05-06 19:24 38.85665 -77.04300 26 ft 0 kts 172°
2026-05-06 19:41 38.85667 -77.04300 27 ft 3 kts 171°
2026-05-06 19:42 38.85688 -77.04315 27 ft 4 kts 117°
2026-05-06 19:42 38.85690 -77.04346 28 ft 3 kts 74°
2026-05-06 19:42 38.85690 -77.04350 28 ft 0 kts 73°
2026-05-06 19:45 38.85690 -77.04349 28 ft 0 kts 73°
2026-05-06 19:46 38.85692 -77.04340 25 ft 2 kts 73°
2026-05-06 19:46 38.85698 -77.04313 25 ft 4 kts 72°
2026-05-06 19:46 38.85710 -77.04266 25 ft 7 kts 72°
2026-05-06 19:46 38.85727 -77.04196 26 ft 8 kts 71°
2026-05-06 19:47 38.85733 -77.04178 27 ft 4 kts 70°
2026-05-06 19:47 38.85751 -77.04116 27 ft 9 kts 61°
2026-05-06 19:47 38.85802 -77.04057 28 ft 11 kts 10°
2026-05-06 19:47 38.85892 -77.04062 24 ft 14 kts 359°
2026-05-06 19:48 38.85953 -77.04024 24 ft 9 kts 45°
2026-05-06 19:48 38.85982 -77.03995 26 ft 2 kts 29°
2026-05-06 19:49 38.86001 -77.03984 24 ft 5 kts 26°
2026-05-06 19:49 38.86034 -77.03963 23 ft 2 kts 27°
2026-05-06 19:49 38.86056 -77.03940 23 ft 7 kts 49°
2026-05-06 19:49 38.86074 -77.03876 21 ft 7 kts 121°
2026-05-06 19:50 38.86029 -77.03860 24 ft 9 kts 179°
2026-05-06 19:50 38.85710 -77.03833 22 ft 86 kts 176°
2026-05-06 19:50 38.84863 -77.03749 116 ft 150 kts 177°
2026-05-06 19:50 38.83705 -77.03635 774 ft 181 kts 179°
2026-05-06 19:51 38.82346 -77.03451 1602 ft 207 kts 178°
2026-05-06 19:51 38.80844 -77.03249 2568 ft 231 kts 179°
2026-05-06 19:51 38.79141 -77.03127 3556 ft 257 kts 184°
2026-05-06 19:51 38.77290 -77.03178 4697 ft 273 kts 188°
2026-05-06 19:52 38.75592 -77.03833 6481 ft 242 kts 222°
2026-05-06 19:52 38.74522 -77.05502 7547 ft 255 kts 251°
2026-05-06 19:52 38.74479 -77.07714 9068 ft 248 kts 277°
2026-05-06 19:52 38.74643 -77.09954 10256 ft 255 kts 266°
2026-05-06 19:53 38.74546 -77.12296 10890 ft 283 kts 264°
2026-05-06 19:53 38.74373 -77.14834 12156 ft 283 kts 264°
2026-05-06 19:53 38.74200 -77.17315 13381 ft 285 kts 264°
2026-05-06 19:53 38.74029 -77.19862 14503 ft 286 kts 265°
2026-05-06 19:54 38.74183 -77.22415 15505 ft 293 kts 284°
2026-05-06 19:54 38.75183 -77.24720 16617 ft 304 kts 304°
2026-05-06 19:54 38.76906 -77.26420 17592 ft 325 kts 324°
2026-05-06 19:54 38.79006 -77.27605 18493 ft 332 kts 328°
2026-05-06 19:55 38.81174 -77.28716 19291 ft 336 kts 328°
2026-05-06 19:55 38.83368 -77.29814 20109 ft 340 kts 328°
2026-05-06 19:55 38.85560 -77.30966 20853 ft 341 kts 326°
2026-05-06 19:55 38.87726 -77.32212 21642 ft 342 kts 324°
2026-05-06 19:56 38.89901 -77.33491 22410 ft 345 kts 323°
2026-05-06 19:56 38.92097 -77.34782 23140 ft 348 kts 323°
2026-05-06 19:56 38.94313 -77.36084 23777 ft 351 kts 323°
2026-05-06 19:56 38.96540 -77.37393 24368 ft 354 kts 323°
2026-05-06 19:57 38.98792 -77.38716 24920 ft 357 kts 323°
2026-05-06 19:57 39.01052 -77.40042 25483 ft 359 kts 323°
2026-05-06 19:57 39.03304 -77.41366 26028 ft 362 kts 323°
2026-05-06 19:57 39.05606 -77.42721 26571 ft 365 kts 323°
2026-05-06 19:58 39.07915 -77.44080 27144 ft 367 kts 323°
2026-05-06 19:58 39.10251 -77.45460 27636 ft 370 kts 323°
2026-05-06 19:58 39.12648 -77.46753 28144 ft 380 kts 327°
2026-05-06 19:58 39.15209 -77.47830 28533 ft 391 kts 330°
2026-05-06 19:59 39.17828 -77.48812 29045 ft 394 kts 330°
2026-05-06 19:59 39.20468 -77.49809 29508 ft 396 kts 330°
2026-05-06 19:59 39.23118 -77.50835 29918 ft 399 kts 330°